Regional Weather Roundup
Issued by NWS Sioux Falls, SD

Home | Current Version | Previous Version | Graphics & Text | Print | Product List | Glossary On
Versions: 1 2 3 4 5 6 7 8 9 10 11 12 13 14 15 16 17 18 19 20 21 22 23 24 25 26 27 28 29 30 31 32 33 34 35 36 37 38 39 40 41 42 43 44 45 46 47 48 49 50
000
ASUS43 KFSD 222010
RWRFSD

WEATHER ROUNDUP FOR SE SOUTH DAKOTA/SW MINNESOTA/NW IOWA
NATIONAL WEATHER SERVICE SIOUX FALLS SD
300 PM CDT SUN OCT 22 2017

NOTE: "FAIR" INDICATES FEW OR NO CLOUDS BELOW 12,000 FEET WITH NO
SIGNIFICANT WEATHER AND OR OBSTRUCTIONS TO VISIBILITY.


SDZ038>040-050-052>070-222100-
SOUTHEAST SOUTH DAKOTA

CITY           SKY/WX    TMP DP  RH WIND       PRES   REMARKS
BROOKINGS      SUNNY     64  28  25 SW14G24   29.91F
CHAMBERLAIN    SUNNY     69  32  24 SW14      29.89S
HURON          SUNNY     66  26  22 SW18G25   29.88F
MADISON        FAIR      63  28  27 SW23G29   29.92F
MITCHELL       SUNNY     68  26  20 SW15G25   29.90F
SIOUX FALLS    SUNNY     65  33  30 SW12G21   29.94F
WINNER         FAIR      69  29  22 W20G25    29.89F
YANKTON        SUNNY     68  27  21 SW16G24   29.94F
$$

MNZ071-072-080-081-089-090-097-098-222100-
SOUTHWEST MINNESOTA

CITY           SKY/WX    TMP DP  RH WIND       PRES   REMARKS
FAIRMONT       SUNNY     63  31  30 W12       30.00F
JACKSON        SUNNY     63  28  27 SW16      30.00S
LUVERNE        SUNNY     63  27  25 SW13      29.96F
MARSHALL       SUNNY     65  28  24 SW13G24   29.93F
MONTEVIDEO     SUNNY     68  30  24 W12G17    29.91F
PIPESTONE      SUNNY     63  27  25 SW15G22   29.94F
REDWOOD FALLS  SUNNY     64  28  25 SW15G21   29.94F
TRACY          SUNNY     65  32  29 SW15      29.95F
WORTHINGTON    SUNNY     64  31  28 SW12G17   29.98F
$$

IAZ001>003-012>014-020>022-031-032-NEZ013-014-SDZ071-222100-
NORTHWEST IOWA

CITY           SKY/WX    TMP DP  RH WIND       PRES   REMARKS
CHEROKEE       SUNNY     65  33  30 SW10G16   30.01F
DENISON        SUNNY     66  30  26 SW12      30.05F
ESTHERVILLE    SUNNY     63  29  27 SW9G21    30.00F
LE MARS        SUNNY     68  27  21 SW9G16    29.99F
ORANGE CITY    SUNNY     66  34  30 SW13      29.99F
SHELDON        SUNNY     66  27  22 W8G18     29.97F
SIOUX CITY     SUNNY     69  29  22 SW13      30.00F
SPENCER        SUNNY     65  26  23 W14G20    30.00F
STORM LAKE     SUNNY     64  25  22 SW16      30.02F
$$

ABBREVIATIONS USED IN REMARKS
   TC - TEMPERATURE IN CELSIUS
  WCI - WIND CHILL INDEX
   HX - HEAT INDEX
  VSB - VISIBILITY





USA.gov is the U.S. government's official web portal to all federal, state and local government web resources and services.